Starlink 30436

operational
NORAD ID: 57880 Int'l Des: 2023-144 Owner: SPXS Country: US Constellation: starlink
LEOCIRCULAR

Über Starlink 30436

Beschreibung wird geladen...

Live-Position

3D-Globus wird geladen...

Nächste Überflüge

Höhenverlauf

Altitude vs Time

uPlot chart will show altitude changes over time

Zweizeiliger Elementsatz

1 57880U 23144S 26035.19471243 .00001414 00000-0 11975-3 0 9995
2 57880 42.9932 109.3407 0001046 275.7505 84.3218 15.02526098132577
Epoch: 4. Feb. 2026 • Age: 12 hours

Aktueller Status

Höhe 562.5 km
Geschwindigkeit 7.59 km/s
Subsatellitenpunkt 41.09°N, 161.29°W
Startdatum 16. Sept. 2023
Alter 2.3 years
Typ internet

Technische Details

Klassifizierung Payload
Masse 730.00 kg
Trockenmasse 700.00 kg
Gesamtmasse 730.00 kg
Länge 0.30 m
Durchmesser 4.10 m
Spannweite 29.00 m
Form Box + pan
Hersteller SPXS
Bus-Typ Starlink V2M
Phasenstatus In Orbit
Besitzer/Staat SPXS/US

Große Konstellationen

Loading constellations...